FW4485 Weather Reports


Display with metric or nautical units.
time (UTC)temp
F
wind
direction
speed
MPH
gust
MPH
rain 1hr
in
rain 24hr
in
rain mn
in
humidity
%
barometer
mb
20260510173026 82 258 1.0 4.0 0.00 0.00 0.00 27 1016.1
20260510171512 81 235 2.0 4.0 0.00 0.00 0.00 25 1016.5
20260510170017 82 50 2.0 4.0 0.00 0.00 0.00 27 1016.2
20260510164537 81 331 1.0 5.0 0.00 0.00 0.00 25 1016.4
20260510163026 81 360 2.0 5.0 0.00 0.00 0.00 30 1016.5
20260510161526 80 221 1.0 5.0 0.00 0.00 0.00 35 1016.5
20260510160037 80 186 1.0 5.0 0.00 0.00 0.00 35 1016.6
20260510154516 79 92 0.0 7.0 0.00 0.00 0.00 37 1016.8
20260510153028 77 32 3.0 5.0 0.00 0.00 0.00 42 1017.0
20260510151525 77 53 1.0 5.0 0.00 0.00 0.00 42 1017.0
20260510150026 76 7 2.0 5.0 0.00 0.00 0.00 44 1017.0
20260510144528 75 315 2.0 5.0 0.00 0.00 0.00 46 1016.9
20260510143018 74 18 2.0 4.0 0.00 0.00 0.00 46 1016.8
20260510141523 73 345 2.0 4.0 0.00 0.00 0.00 49 1017.0
20260510140028 71 297 1.0 3.0 0.00 0.00 0.00 58 1017.1
20260510134530 69 163 0.0 3.0 0.00 0.00 0.00 63 1017.0
20260510133029 66 232 1.0 2.0 0.00 0.00 0.00 67 1017.0
20260510131521 64 143 0.0 1.0 0.00 0.00 0.00 74 1017.0
20260510130029 62 232 0.0 1.0 0.00 0.00 0.00 78 1016.8
20260510124538 60 172 0.0 1.0 0.00 0.00 0.00 83 1016.7
20260510123028 57 347 0.0 1.0 0.00 0.00 0.00 89 1016.7
20260510121528 55 340 0.0 1.0 0.00 0.00 0.00 94 1016.5
20260510120028 53 235 0.0 0.0 0.00 0.00 0.00 95 1016.1
20260510114505 52 235 0.0 3.0 0.00 0.00 0.00 95 1015.9
20260510113013 51 235 0.0 0.0 0.00 0.00 0.00 95 1015.6
20260510111515 50 235 0.0 0.0 0.00 0.00 0.00 95 1015.4
20260510110018 50 235 0.0 0.0 0.00 0.00 0.00 95 1015.2
20260510104527 50 235 0.0 1.0 0.00 0.00 0.00 95 1015.1
20260510103006 49 235 0.0 1.0 0.00 0.00 0.00 95 1014.7
20260510101513 50 235 0.0 1.0 0.00 0.00 0.00 94 1014.5
20260510100019 50 235 0.0 1.0 0.00 0.00 0.00 94 1014.3
20260510094523 51 232 0.0 1.0 0.00 0.00 0.00 94 1014.3
20260510093026 51 198 0.0 0.0 0.00 0.00 0.00 94 1014.2
20260510091545 51 198 0.0 0.0 0.00 0.00 0.00 94 1014.1
20260510090014 51 190 0.0 0.0 0.00 0.00 0.00 94 1014.1
20260510084517 52 190 0.0 0.0 0.00 0.00 0.00 94 1013.9
20260510083023 52 190 0.0 0.0 0.00 0.00 0.00 94 1013.8
20260510081535 52 190 0.0 0.0 0.00 0.00 0.00 94 1013.6
20260510080027 52 190 0.0 0.0 0.00 0.00 0.00 94 1013.3
20260510074516 53 190 0.0 0.0 0.00 0.00 0.00 93 1013.2
20260510073027 53 190 0.0 0.0 0.00 0.00 0.00 93 1013.2
20260510071533 54 190 0.0 0.0 0.00 0.00 0.00 93 1013.2
20260510070034 54 190 0.0 0.0 0.00 0.00 0.00 93 1013.0
20260510064552 55 190 0.0 0.0 0.00 0.00 0.00 93 1013.0
20260510063022 55 190 0.0 0.0 0.00 0.00 0.00 93 1013.1
20260510061532 56 190 0.0 0.0 0.00 0.00 0.00 93 1012.9
20260510060032 56 190 0.0 0.0 0.00 0.00 0.00 93 1013.1
20260510054509 57 190 0.0 0.0 0.00 0.00 0.00 92 1013.0
20260510053016 57 190 0.0 0.0 0.00 0.00 0.00 92 1013.1
20260510051516 57 190 0.0 0.0 0.00 0.00 0.00 92 1013.3
20260510050024 58 190 0.0 1.0 0.00 0.00 0.00 91 1013.4
20260510044531 58 210 0.0 1.0 0.00 0.00 0.00 91 1013.3
20260510043008 59 210 0.0 0.0 0.00 0.00 0.00 90 1013.2
20260510041515 59 210 0.0 1.0 0.00 0.00 0.00 90 1013.2
20260510040018 59 210 0.0 0.0 0.00 0.00 0.00 90 1013.2
20260510034520 60 210 0.0 0.0 0.00 0.00 0.00 90 1013.3
20260510033025 60 210 0.0 0.0 0.00 0.00 0.00 90 1013.3
20260510031510 60 210 0.0 0.0 0.00 0.00 0.00 90 1013.3
20260510030011 60 210 0.0 0.0 0.00 0.00 0.00 89 1013.3
20260510024517 60 210 0.0 0.0 0.00 0.00 0.00 89 1013.1
20260510023022 61 210 0.0 0.0 0.00 0.00 0.00 88 1012.9
20260510021527 61 210 0.0 0.0 0.00 0.00 0.00 88 1012.7
20260510020028 61 210 0.0 0.0 0.00 0.00 0.00 86 1012.4
20260510014517 62 210 0.0 0.0 0.00 0.00 0.00 85 1012.4
20260510013022 63 210 0.0 0.0 0.00 0.00 0.00 83 1012.1
20260510011525 63 210 0.0 0.0 0.00 0.00 0.00 82 1011.8
20260510010028 64 210 0.0 0.0 0.00 0.00 0.00 79 1011.6
20260510004530 65 210 0.0 0.0 0.00 0.00 0.00 78 1011.4
20260510003016 66 210 0.0 1.0 0.00 0.00 0.00 76 1011.0
20260510001520 68 210 0.0 3.0 0.00 0.00 0.00 74 1010.9
20260510000030 69 134 0.0 3.0 0.00 0.00 0.00 72 1011.0
20260509234541 69 185 1.0 2.0 0.00 0.00 0.00 69 1010.8
20260509233040 70 203 0.0 3.0 0.00 0.00 0.00 67 1010.7
20260509231517 71 150 0.0 1.0 0.00 0.00 0.00 67 1010.5
20260509230024 72 72 2.0 3.0 0.00 0.00 0.00 63 1010.1
20260509224531 72 234 1.0 5.0 0.00 0.00 0.00 61 1009.9
20260509223032 73 108 0.0 4.0 0.00 0.00 0.00 61 1009.6
20260509221527 74 152 1.0 2.0 0.00 0.00 0.00 59 1009.8
20260509220025 75 219 1.0 4.0 0.00 0.00 0.00 57 1009.6
20260509214525 77 161 1.0 2.0 0.00 0.00 0.00 55 1009.8
20260509213027 77 245 2.0 5.0 0.00 0.00 0.00 54 1009.6
20260509211532 78 218 1.0 3.0 0.00 0.00 0.00 53 1009.6
20260509210023 77 239 1.0 3.0 0.00 0.00 0.00 55 1009.4
20260509204521 77 149 1.0 6.0 0.00 0.00 0.00 53 1009.2
20260509203034 78 345 1.0 4.0 0.00 0.00 0.00 50 1009.3
20260509201526 77 235 2.0 5.0 0.00 0.00 0.00 50 1009.4
20260509200014 75 275 1.0 5.0 0.00 0.00 0.00 55 1009.4
20260509194517 76 227 1.0 5.0 0.00 0.00 0.00 53 1009.6
20260509193022 77 113 1.0 3.0 0.00 0.00 0.00 53 1009.9
20260509191528 76 100 2.0 4.0 0.00 0.00 0.00 52 1010.0
20260509190032 76 82 1.0 5.0 0.00 0.00 0.00 51 1010.1
20260509184526 76 150 2.0 6.0 0.00 0.00 0.00 56 1010.1
20260509183029 75 343 1.0 7.0 0.00 0.00 0.00 57 1010.3
20260509181523 75 65 2.0 4.0 0.00 0.00 0.00 55 1010.6
20260509180027 73 86 2.0 5.0 0.00 0.00 0.00 57 1010.9
20260509174528 73 318 1.0 4.0 0.00 0.00 0.00 57 1011.2